M I D A S
Marine Information and Data Acquisition System
Tripno 900 of the Zeeleeuw from 2005-05-13 11:42:02 to 2005-05-13 13:38:10
Back to CruiseResearch ActivitiesStationsMapUnderway DataData graphs

EquipmentUnitsComments
TimeDGPSUTC
LatitudeDGPSDM.mWGS84
LongitudeDGPSDM.mWGS84
SpeedMeteo Stationm/sRelative wind speed
DirectionMeteo StationdegRelative wind direction
TemperatureMeteo Stationdeg CelciusAir temperature
PressureMeteo StationPaAtmospheric pressure
HumidityMeteo Station%Relative humidity
Missing or incorrect values are displayed as -999
Metereological data collected by the RV Zeeleeuw from 2005-05-13 07:17:48 to 2005-05-13 13:50:20
Time Latitude Longitude Speed Direction Temperature Pressure Humidity
2005-05-13 07:18 51°13.611 2°56.047 5.5 310 11 101810 62
2005-05-13 07:19 51°13.649 2°55.932 7.5 282 10.9 101810 63
2005-05-13 07:20 51°13.701 2°55.815 1.1 230 10.9 101800 63
2005-05-13 07:21 51°13.733 2°55.731 7.5 349 10.9 101800 63
2005-05-13 07:22 51°13.737 2°55.738 1.7 19 10.8 101800 63
2005-05-13 07:23 51°13.725 2°55.706 4.4 81 10.7 101810 63
2005-05-13 07:24 51°13.766 2°55.677 6.2 93 10.7 101810 64
2005-05-13 07:25 51°13.848 2°55.625 4.1 35 10.6 101810 64
2005-05-13 07:26 51°13.957 2°55.554 5.7 99 10.6 101800 65
2005-05-13 07:27 51°14.088 2°55.465 6.9 58 10.6 101800 66
2005-05-13 07:28 51°14.208 2°55.357 8.8 81 10.6 101800 65
2005-05-13 07:29 51°14.316 2°55.161 5.4 89 10.6 101790 66
2005-05-13 07:30 51°14.403 2°54.872 8.1 105 10.6 101800 67
2005-05-13 07:31 51°14.48 2°54.528 9.6 121 10.5 101790 66
2005-05-13 07:32 51°14.567 2°54.183 7.3 110 10.4 101810 67
2005-05-13 07:33 51°14.654 2°53.84 8.3 95 10.5 101790 68
2005-05-13 07:34 51°14.736 2°53.492 9 109 10.5 101790 72
2005-05-13 07:35 51°14.787 2°53.124 7.2 99 10.4 101800 73
2005-05-13 07:36 51°14.804 2°52.745 6.9 118 10.3 101810 74
2005-05-13 07:37 51°14.813 2°52.366 7.6 127 10.1 101800 73
2005-05-13 07:38 51°14.824 2°51.982 8.9 121 10 101800 74
2005-05-13 07:39 51°14.833 2°51.592 8.5 122 10 101820 75
2005-05-13 07:40 51°14.842 2°51.209 6.6 126 10 101810 74
2005-05-13 07:41 51°14.785 2°50.878 8.6 138 10 101820 76
2005-05-13 07:42 51°14.776 2°50.713 10 171 9.9 101800 74
2005-05-13 07:43 51°14.75 2°50.611 8.4 167 9.8 101810 75
2005-05-13 07:44 51°14.731 2°50.516 10.5 152 9.8 101810 76
2005-05-13 07:45 51°14.703 2°50.415 7 179 9.8 101800 77
2005-05-13 07:46 51°14.672 2°50.309 7.7 179 9.9 101810 77
2005-05-13 07:47 51°14.643 2°50.195 9.1 178 9.9 101810 77
2005-05-13 07:48 51°14.619 2°50.088 9.6 178 9.9 101800 78
2005-05-13 07:49 51°14.591 2°49.998 5.5 193 9.8 101800 77
2005-05-13 07:50 51°14.554 2°49.927 12.6 225 9.8 101790 75
2005-05-13 07:51 51°14.513 2°49.872 8.5 255 9.8 101780 77
2005-05-13 07:52 51°14.474 2°49.826 9.4 253 9.9 101770 77
2005-05-13 07:53 51°14.439 2°49.781 10.3 244 9.9 101780 78
2005-05-13 07:54 51°14.406 2°49.737 10.6 247 9.9 101780 77
2005-05-13 07:55 51°14.368 2°49.692 9.1 251 9.9 101770 77
2005-05-13 07:56 51°14.322 2°49.64 11.9 239 10 101780 78
2005-05-13 07:57 51°14.269 2°49.584 10.5 236 10 101770 78
2005-05-13 07:58 51°14.215 2°49.524 8.2 246 9.9 101780 78
2005-05-13 07:59 51°14.163 2°49.461 8.7 226 10 101780 79
2005-05-13 08:00 51°14.115 2°49.395 11.6 224 10 101780 79
2005-05-13 08:01 51°14.069 2°49.325 10.5 218 10 101780 78
2005-05-13 08:02 51°14.028 2°49.253 8.9 222 10 101780 79
2005-05-13 08:03 51°13.99 2°49.177 9.1 210 10.1 101790 80
2005-05-13 08:04 51°13.955 2°49.1 8.7 203 10.1 101780 80
2005-05-13 08:05 51°13.92 2°49.023 11.6 214 10 101790 78
2005-05-13 08:06 51°13.88 2°48.95 10.7 218 10 101790 78
2005-05-13 08:07 51°13.844 2°48.88 7.2 206 10 101780 77
2005-05-13 08:08 51°13.814 2°48.803 7.5 178 10.1 101790 79
2005-05-13 08:09 51°13.795 2°48.726 12.1 148 10.1 101800 78
2005-05-13 08:10 51°13.785 2°48.651 11.1 139 10.1 101790 78
2005-05-13 08:11 51°13.779 2°48.582 10.9 120 10.2 101790 79
2005-05-13 08:12 51°13.781 2°48.513 11.7 104 10.2 101790 79
2005-05-13 08:13 51°13.804 2°48.426 10.3 95 10.2 101790 79
2005-05-13 08:14 51°13.847 2°48.32 12.7 95 10.2 101780 79
2005-05-13 08:15 51°13.895 2°48.222 11.7 85 10.1 101790 78
2005-05-13 08:16 51°13.936 2°48.141 13.1 91 10.1 101790 79
2005-05-13 08:17 51°13.95 2°48.075 12.8 92 10.1 101790 79
2005-05-13 08:18 51°13.951 2°48.017 12.4 91 10.1 101790 78
2005-05-13 08:19 51°13.943 2°47.961 11.4 101 10.1 101760 78
2005-05-13 08:20 51°13.929 2°47.906 12.4 105 10.2 101770 79
2005-05-13 08:21 51°13.921 2°47.847 11.5 96 10.1 101760 77
2005-05-13 08:22 51°13.933 2°47.795 11.9 62 10.1 101760 77
2005-05-13 08:23 51°13.951 2°47.777 12.4 22 10.2 101760 79
2005-05-13 08:24 51°13.951 2°47.757 12 18 10.1 101770 77
2005-05-13 08:25 51°13.943 2°47.73 10.6 14 10.2 101770 78
2005-05-13 08:26 51°13.926 2°47.692 8.5 356 10.2 101770 78
2005-05-13 08:27 51°13.905 2°47.65 10.6 336 10.3 101760 79
2005-05-13 08:28 51°13.881 2°47.615 12.8 318 10.3 101770 77
2005-05-13 08:29 51°13.86 2°47.629 11.8 354 10.3 101760 76
2005-05-13 08:30 51°13.873 2°47.635 12.6 54 10.3 101760 76
2005-05-13 08:31 51°13.885 2°47.595 11.8 61 10.2 101760 76
2005-05-13 08:32 51°13.912 2°47.579 12.8 25 10.2 101770 76
2005-05-13 08:33 51°13.965 2°47.63 14 17 10.2 101780 77
2005-05-13 08:34 51°14.009 2°47.702 14 5 10.3 101770 77
2005-05-13 08:35 51°14.041 2°47.762 13.3 17 10.3 101770 77
2005-05-13 08:36 51°14.062 2°47.822 13.8 343 10.3 101770 77
2005-05-13 08:37 51°14.058 2°47.91 11.3 356 10.4 101750 77
2005-05-13 08:38 51°14.054 2°47.992 12.3 351 10.4 101750 76
2005-05-13 08:39 51°14.052 2°48.069 13.4 352 10.4 101750 77
2005-05-13 08:40 51°14.051 2°48.143 13.1 347 10.4 101750 76
2005-05-13 08:41 51°14.049 2°48.217 13.1 345 10.5 101750 76
2005-05-13 08:42 51°14.048 2°48.293 13.6 349 10.5 101740 76
2005-05-13 08:43 51°14.045 2°48.369 14.3 342 10.5 101740 76
2005-05-13 08:44 51°14.041 2°48.446 14 347 10.5 101740 76
2005-05-13 08:45 51°14.037 2°48.517 14.1 346 10.5 101730 75
2005-05-13 08:46 51°14.031 2°48.584 13.3 342 10.5 101740 75
2005-05-13 08:47 51°14.039 2°48.665 14.3 3 10.5 101740 75
2005-05-13 08:48 51°14.057 2°48.753 12.7 355 10.5 101730 74
2005-05-13 08:49 51°14.069 2°48.828 13.7 353 10.6 101740 75
2005-05-13 08:50 51°14.077 2°48.895 14.3 352 10.6 101730 75
2005-05-13 08:51 51°14.086 2°48.96 14.6 357 10.7 101740 74
2005-05-13 08:52 51°14.095 2°49.021 15 359 10.7 101730 75
2005-05-13 08:53 51°14.106 2°49.079 14.4 355 10.7 101750 74
2005-05-13 08:54 51°14.124 2°49.145 14.9 356 10.7 101740 74
2005-05-13 08:55 51°14.142 2°49.214 12.9 352 10.7 101740 74
2005-05-13 08:56 51°14.161 2°49.285 14.9 359 10.7 101720 75
2005-05-13 08:57 51°14.18 2°49.359 12.2 358 10.7 101750 75
2005-05-13 08:58 51°14.196 2°49.433 13.1 352 10.7 101740 75
2005-05-13 08:59 51°14.194 2°49.513 14.5 317 10.7 101730 75
2005-05-13 09:00 51°14.154 2°49.595 15.7 308 10.7 101710 74
2005-05-13 09:01 51°14.072 2°49.595 9.7 232 10.7 101740 75
2005-05-13 09:02 51°14.016 2°49.482 8.9 160 10.7 101780 74
2005-05-13 09:03 51°13.988 2°49.38 12.5 149 10.7 101780 75
2005-05-13 09:04 51°13.972 2°49.291 9.9 127 10.7 101750 74
2005-05-13 09:05 51°13.989 2°49.202 13.1 68 10.6 101750 74
2005-05-13 09:06 51°14.047 2°49.222 15.1 6 10.6 101750 74
2005-05-13 09:07 51°14.107 2°49.433 16.3 355 10.6 101730 74
2005-05-13 09:08 51°14.182 2°49.706 19.2 2 10.7 101730 75
2005-05-13 09:09 51°14.259 2°49.98 20 359 10.7 101730 75
2005-05-13 09:10 51°14.335 2°50.259 19.5 358 10.7 101740 74
2005-05-13 09:11 51°14.411 2°50.54 19.7 358 10.7 101750 74
2005-05-13 09:12 51°14.488 2°50.819 19.7 357 10.8 101740 75
2005-05-13 09:13 51°14.564 2°51.104 18.5 2 10.7 101740 74
2005-05-13 09:14 51°14.627 2°51.393 18 345 10.7 101720 73
2005-05-13 09:15 51°14.66 2°51.69 19.2 349 10.8 101720 74
2005-05-13 09:16 51°14.692 2°51.989 17.6 347 10.8 101730 73
2005-05-13 09:17 51°14.72 2°52.293 17.4 343 10.8 101730 75
2005-05-13 09:18 51°14.712 2°52.592 17.3 344 10.9 101720 74
2005-05-13 09:19 51°14.694 2°52.914 17.8 337 10.9 101720 75
2005-05-13 09:20 51°14.66 2°53.229 16.2 333 10.9 101710 74
2005-05-13 09:21 51°14.618 2°53.544 17.3 335 10.9 101710 74
2005-05-13 09:22 51°14.571 2°53.871 16.7 335 10.9 101720 74
2005-05-13 09:23 51°14.523 2°54.127 14.7 41 11 101710 74
2005-05-13 09:24 51°14.472 2°54.249 13.4 320 11 101730 74
2005-05-13 09:25 51°14.449 2°54.288 12.3 318 11 101740 73
2005-05-13 09:26 51°14.426 2°54.283 11.8 229 11.1 101750 74
2005-05-13 09:27 51°14.401 2°54.264 13.2 318 11.1 101750 74
2005-05-13 09:28 51°14.386 2°54.295 10.9 345 11.2 101750 74
2005-05-13 09:29 51°14.375 2°54.324 13.5 350 11.2 101740 73
2005-05-13 09:30 51°14.376 2°54.363 13.5 345 11.2 101740 73
2005-05-13 09:31 51°14.378 2°54.409 13.2 354 11.2 101720 73
2005-05-13 09:32 51°14.376 2°54.441 12.3 347 11.2 101740 73
2005-05-13 09:33 51°14.379 2°54.495 13.7 355 11.2 101730 72
2005-05-13 09:34 51°14.381 2°54.649 17.3 333 11.2 101720 71
2005-05-13 09:35 51°14.383 2°54.924 18.7 328 11.3 101700 72
2005-05-13 09:36 51°14.297 2°55.189 13.1 231 11.3 101700 72
2005-05-13 09:37 51°14.185 2°55.365 10.8 243 11.4 101760 72
2005-05-13 09:38 51°14.078 2°55.454 8.6 275 11.4 101780 73
2005-05-13 09:39 51°13.962 2°55.531 6.1 309 11.5 101770 72
2005-05-13 09:40 51°13.857 2°55.602 7.3 317 11.6 101770 68
2005-05-13 09:41 51°13.779 2°55.683 7.4 304 11.8 101770 64
2005-05-13 09:42 51°13.717 2°55.779 10.5 330 12 101760 62
2005-05-13 09:43 51°13.668 2°55.877 7.1 341 12.1 101770 61
2005-05-13 09:44 51°13.637 2°55.961 8.6 315 12.2 101760 60
2005-05-13 09:45 51°13.614 2°56.04 7.3 324 12.3 101770 60
2005-05-13 09:46 51°13.599 2°56.086 4.3 289 12.3 101760 60
2005-05-13 09:47 51°13.594 2°56.094 4.8 331 12.4 101760 60
2005-05-13 09:48 51°13.59 2°56.101 3.4 303 12.5 101760 60
2005-05-13 09:49 51°13.594 2°56.097 7.4 319 12.6 101760 60
2005-05-13 09:50 51°13.593 2°56.103 2.6 33 12.7 101760 59
2005-05-13 09:51 51°13.595 2°56.101 4.7 307 12.8 101760 60
2005-05-13 09:52 51°13.594 2°56.102 4.1 309 12.9 101760 59
2005-05-13 09:53 51°13.594 2°56.103 3.9 329 12.9 101760 59
2005-05-13 09:54 51°13.595 2°56.103 2.7 309 12.9 101760 59
2005-05-13 09:55 51°13.595 2°56.103 4.8 306 12.9 101760 59
2005-05-13 09:56 51°13.595 2°56.103 5.3 306 12.9 101760 58
2005-05-13 09:57 51°13.596 2°56.103 5.4 302 13 101760 59
2005-05-13 09:58 51°13.596 2°56.103 7.6 315 13 101760 58
2005-05-13 09:59 51°13.596 2°56.102 2.6 301 13.1 101760 58
2005-05-13 10:00 51°13.596 2°56.102 6.7 299 13.1 101760 58
2005-05-13 10:01 51°13.596 2°56.102 2 346 13.2 101760 58
2005-05-13 10:02 51°13.596 2°56.103 4 336 13.2 101760 58
2005-05-13 10:03 51°13.595 2°56.103 6.8 316 13.2 101760 58
2005-05-13 10:04 51°13.595 2°56.103 3.3 340 13.2 101760 58
2005-05-13 10:05 51°13.595 2°56.103 2.5 316 13.2 101760 58
2005-05-13 10:06 51°13.596 2°56.103 5.9 304 13.2 101760 59
2005-05-13 10:07 51°13.596 2°56.103 8.8 307 13.3 101760 57
2005-05-13 10:08 51°13.596 2°56.103 6.4 306 13.2 101760 57
2005-05-13 10:09 51°13.596 2°56.103 2.5 307 13.2 101760 58
2005-05-13 10:10 51°13.595 2°56.103 5.6 310 13.2 101760 58
2005-05-13 10:11 51°13.595 2°56.103 5.9 306 13.2 101760 57
2005-05-13 10:12 51°13.594 2°56.103 7.3 324 13.2 101760 58
2005-05-13 10:13 51°13.594 2°56.103 7.2 326 13.2 101760 57
2005-05-13 10:14 51°13.594 2°56.103 5.5 244 13.2 101760 56
2005-05-13 10:15 51°13.594 2°56.104 5.3 316 13.2 101760 57
2005-05-13 10:16 51°13.594 2°56.104 6 316 13.2 101760 57
2005-05-13 10:17 51°13.594 2°56.103 6.7 333 13.2 101760 56
2005-05-13 10:18 51°13.594 2°56.103 6.8 309 13.3 101760 57
2005-05-13 10:19 51°13.594 2°56.103 4.8 328 13.3 101770 58
2005-05-13 10:20 51°13.595 2°56.103 5.2 309 13.3 101770 57
2005-05-13 10:21 51°13.595 2°56.103 9.3 330 13.3 101760 57
2005-05-13 10:22 51°13.594 2°56.103 4.2 241 13.3 101770 57
2005-05-13 10:23 51°13.594 2°56.102 4.6 350 13.3 101760 56
2005-05-13 10:24 51°13.594 2°56.102 6.6 341 13.3 101770 57
2005-05-13 10:25 51°13.594 2°56.103 9.8 329 13.3 101760 57
2005-05-13 10:26 51°13.594 2°56.103 5.9 342 13.3 101770 57
2005-05-13 10:27 51°13.594 2°56.103 8.1 239 13.3 101770 57
2005-05-13 10:28 51°13.594 2°56.103 6.3 330 13.4 101770 57
2005-05-13 10:29 51°13.594 2°56.103 7 232 13.5 101760 56
2005-05-13 10:30 51°13.594 2°56.103 5.2 324 13.5 101770 56
2005-05-13 10:31 51°13.595 2°56.103 5.9 317 13.6 101760 56
2005-05-13 10:32 51°13.595 2°56.103 4.9 36 13.7 101760 56
2005-05-13 10:33 51°13.595 2°56.103 3.7 27 13.7 101760 56
2005-05-13 10:34 51°13.595 2°56.104 3.8 341 13.8 101760 57
2005-05-13 10:35 51°13.594 2°56.104 4.6 313 13.9 101760 57
2005-05-13 10:36 51°13.594 2°56.105 4.5 320 14 101760 56
2005-05-13 10:37 51°13.595 2°56.105 6 303 14.1 101760 56
2005-05-13 10:38 51°13.595 2°56.104 3.9 305 14.1 101760 55
2005-05-13 10:39 51°13.594 2°56.103 5.7 310 14.2 101760 56
2005-05-13 10:40 51°13.594 2°56.103 4.5 312 14.3 101760 55
2005-05-13 10:41 51°13.594 2°56.103 6.4 321 14.4 101760 55
2005-05-13 10:42 51°13.594 2°56.103 9.3 345 14.4 101750 54
2005-05-13 10:43 51°13.594 2°56.103 4.6 324 14.2 101740 54
2005-05-13 10:44 51°13.594 2°56.103 7.2 286 14.2 101750 55
2005-05-13 10:45 51°13.594 2°56.103 5 307 14.2 101750 55
2005-05-13 10:46 51°13.595 2°56.102 6.3 313 14.2 101750 55
2005-05-13 10:47 51°13.594 2°56.103 3.8 315 14.2 101750 55
2005-05-13 10:48 51°13.595 2°56.103 7.9 343 14.3 101740 55
2005-05-13 10:49 51°13.595 2°56.103 7.6 315 14.3 101750 55
2005-05-13 10:50 51°13.595 2°56.103 4.2 307 14.3 101750 56
2005-05-13 10:51 51°13.595 2°56.103 5.1 313 14.3 101740 56
2005-05-13 10:52 51°13.595 2°56.103 6.7 38 14.4 101750 56
2005-05-13 10:53 51°13.596 2°56.103 4.6 301 14.4 101750 55
2005-05-13 10:54 51°13.596 2°56.103 7.2 311 14.4 101750 55
2005-05-13 10:55 51°13.594 2°56.102 6.3 346 14.3 101740 55
2005-05-13 10:56 51°13.594 2°56.102 5 303 14.3 101750 55
2005-05-13 10:57 51°13.594 2°56.103 6.5 338 14.3 101740 54
2005-05-13 10:58 51°13.595 2°56.103 5 35 14.2 101740 54
2005-05-13 10:59 51°13.593 2°56.102 6.3 314 14.2 101740 55
2005-05-13 11:00 51°13.593 2°56.102 4.6 36 14.2 101740 55
2005-05-13 11:01 51°13.593 2°56.102 10.1 319 14.2 101740 55
2005-05-13 11:02 51°13.594 2°56.102 10.6 317 14.1 101740 55
2005-05-13 11:03 51°13.596 2°56.102 9.9 314 14 101740 55
2005-05-13 11:04 51°13.596 2°56.102 10.2 21 14 101740 55
2005-05-13 11:05 51°13.598 2°56.103 6.4 319 14 101750 55
2005-05-13 11:06 51°13.597 2°56.103 7.3 305 14 101740 54
2005-05-13 11:07 51°13.595 2°56.103 7.2 313 14 101740 55
2005-05-13 11:08 51°13.597 2°56.104 4.3 310 14 101740 55
2005-05-13 11:09 51°13.598 2°56.105 4.7 296 14.1 101740 55
2005-05-13 11:10 51°13.594 2°56.103 3.3 315 14.2 101740 55
2005-05-13 11:11 51°13.598 2°56.104 6.7 41 14.2 101740 54
2005-05-13 11:12 51°13.594 2°56.103 7.3 337 14.2 101740 55
2005-05-13 11:13 51°13.593 2°56.102 6.2 274 14.1 101740 55
2005-05-13 11:14 51°13.593 2°56.102 4 282 14.2 101740 55
2005-05-13 11:15 51°13.594 2°56.102 5.6 307 14.2 101750 55
2005-05-13 11:16 51°13.593 2°56.102 7.2 226 14.3 101740 55
2005-05-13 11:17 51°13.593 2°56.102 4.2 336 14.3 101740 55
2005-05-13 11:18 51°13.593 2°56.103 6.8 320 14.3 101740 55
2005-05-13 11:19 51°13.593 2°56.103 3.2 320 14.4 101740 55
2005-05-13 11:20 51°13.593 2°56.103 6 327 14.5 101740 55
2005-05-13 11:21 51°13.594 2°56.104 6.6 230 14.6 101740 54
2005-05-13 11:22 51°13.595 2°56.104 6.2 309 14.5 101730 54
2005-05-13 11:23 51°13.594 2°56.104 6.7 322 14.5 101740 54
2005-05-13 11:24 51°13.597 2°56.105 8.4 319 14.5 101740 53
2005-05-13 11:25 51°13.595 2°56.103 5.5 235 14.5 101740 54
2005-05-13 11:26 51°13.594 2°56.103 8.4 301 14.5 101730 53
2005-05-13 11:27 51°13.595 2°56.103 5.1 303 14.5 101740 54
2005-05-13 11:28 51°13.595 2°56.103 6.5 311 14.5 101740 54
2005-05-13 11:29 51°13.594 2°56.103 5.2 316 14.5 101740 54
2005-05-13 11:30 51°13.594 2°56.103 4.4 299 14.5 101730 54
2005-05-13 11:31 51°13.595 2°56.104 6.9 317 14.5 101740 53
2005-05-13 11:32 51°13.595 2°56.103 5.3 300 14.5 101740 54
2005-05-13 11:33 51°13.595 2°56.103 3.7 300 14.5 101730 54
2005-05-13 11:34 51°13.596 2°56.103 5.8 290 14.6 101730 54
2005-05-13 11:35 51°13.595 2°56.103 6.2 226 14.7 101740 54
2005-05-13 11:36 51°13.595 2°56.103 5.9 315 14.7 101730 54
2005-05-13 11:37 51°13.596 2°56.103 4.4 308 14.7 101740 54
2005-05-13 11:38 51°13.596 2°56.103 5.1 312 14.7 101730 54
2005-05-13 11:39 51°13.596 2°56.103 6.7 318 14.7 101740 53
2005-05-13 11:40 51°13.596 2°56.103 9.3 305 14.7 101740 52
2005-05-13 11:41 51°13.595 2°56.103 3.6 323 14.6 101730 53
2005-05-13 11:42 51°13.595 2°56.103 4.1 326 14.6 101730 53
2005-05-13 11:43 51°13.595 2°56.103 6.2 310 14.6 101730 53
2005-05-13 11:44 51°13.595 2°56.103 4.3 308 14.7 101730 53
2005-05-13 11:45 51°13.594 2°56.103 7.6 308 14.7 101730 53
2005-05-13 11:46 51°13.594 2°56.103 8 319 14.6 101730 52
2005-05-13 11:47 51°13.608 2°56.059 2.3 254 14.6 101740 53
2005-05-13 11:48 51°13.637 2°55.954 4.9 213 14.7 101740 52
2005-05-13 11:49 51°13.684 2°55.841 2.9 241 14.6 101730 52
2005-05-13 11:50 51°13.712 2°55.793 3.3 308 14.6 101730 52
2005-05-13 11:51 51°13.708 2°55.792 6.4 340 14.6 101730 52
2005-05-13 11:52 51°13.698 2°55.746 3.7 17 14.6 101730 52
2005-05-13 11:53 51°13.718 2°55.756 3.4 52 14.5 101720 52
2005-05-13 11:54 51°13.757 2°55.714 7.5 49 14.5 101720 53
2005-05-13 11:55 51°13.85 2°55.624 8.4 43 14.5 101720 53
2005-05-13 11:56 51°13.977 2°55.518 8.9 42 14.3 101710 56
2005-05-13 11:57 51°14.084 2°55.434 7 60 14.1 101710 57
2005-05-13 11:58 51°14.211 2°55.33 9.9 55 13.9 101710 59
2005-05-13 11:59 51°14.337 2°55.141 9.5 70 13.5 101710 62
2005-05-13 12:00 51°14.48 2°54.942 15.4 52 13.3 101690 63
2005-05-13 12:01 51°14.679 2°54.829 13.5 44 13.1 101680 63
2005-05-13 12:02 51°14.88 2°54.715 15.1 44 12.9 101680 65
2005-05-13 12:03 51°15.051 2°54.516 10.6 72 12.8 101690 66
2005-05-13 12:04 51°15.091 2°54.164 6.8 107 12.8 101700 67
2005-05-13 12:05 51°15.062 2°53.783 6.2 102 12.7 101730 67
2005-05-13 12:06 51°15.036 2°53.404 5.1 91 12.7 101730 67
2005-05-13 12:07 51°15.009 2°53.022 5.6 98 12.7 101730 67
2005-05-13 12:08 51°14.981 2°52.639 7.2 90 12.8 101730 69
2005-05-13 12:09 51°14.945 2°52.258 6.2 107 12.7 101730 70
2005-05-13 12:10 51°14.9 2°51.921 8.6 108 12.5 101730 72
2005-05-13 12:11 51°14.897 2°51.746 9.3 125 12.4 101710 73
2005-05-13 12:12 51°14.853 2°51.62 5.3 189 12.2 101720 74
2005-05-13 12:13 51°14.794 2°51.544 6.6 203 12.1 101730 74
2005-05-13 12:14 51°14.718 2°51.459 4.3 191 12 101730 75
2005-05-13 12:15 51°14.66 2°51.354 9.8 164 12.1 101730 75
2005-05-13 12:16 51°14.62 2°51.264 7.8 166 12 101730 74
2005-05-13 12:17 51°14.584 2°51.184 10 159 11.9 101720 76
2005-05-13 12:18 51°14.553 2°51.109 11 150 11.8 101710 76
2005-05-13 12:19 51°14.523 2°51.041 8.7 153 11.8 101710 77
2005-05-13 12:20 51°14.49 2°50.976 8.4 159 11.8 101710 79
2005-05-13 12:21 51°14.458 2°50.912 10.1 154 11.7 101720 80
2005-05-13 12:22 51°14.43 2°50.845 11 139 11.7 101710 80
2005-05-13 12:23 51°14.405 2°50.781 9.4 148 11.6 101710 80
2005-05-13 12:24 51°14.378 2°50.718 9.6 142 11.7 101700 80
2005-05-13 12:25 51°14.351 2°50.655 10.4 146 11.7 101710 80
2005-05-13 12:26 51°14.324 2°50.593 8.6 147 11.7 101710 80
2005-05-13 12:27 51°14.296 2°50.532 10.1 139 11.6 101700 80
2005-05-13 12:28 51°14.268 2°50.469 10.9 148 11.7 101710 80
2005-05-13 12:29 51°14.241 2°50.403 9.6 142 11.6 101700 80
2005-05-13 12:30 51°14.215 2°50.337 9.7 138 11.7 101700 80
2005-05-13 12:31 51°14.19 2°50.271 9.1 141 11.7 101700 80
2005-05-13 12:32 51°14.166 2°50.203 13.2 44 11.7 101700 80
2005-05-13 12:33 51°14.142 2°50.129 10.9 138 11.7 101700 80
2005-05-13 12:34 51°14.12 2°50.051 10.4 129 11.7 101700 80
2005-05-13 12:35 51°14.1 2°49.97 11.5 137 11.6 101700 79
2005-05-13 12:36 51°14.082 2°49.89 10.1 136 11.7 101700 79
2005-05-13 12:37 51°14.062 2°49.809 11.6 134 11.6 101700 79
2005-05-13 12:38 51°14.038 2°49.73 10.6 142 11.7 101700 79
2005-05-13 12:39 51°14.014 2°49.65 9.5 146 11.7 101700 78
2005-05-13 12:40 51°13.99 2°49.571 11.4 141 11.7 101700 79
2005-05-13 12:41 51°13.968 2°49.491 11.1 133 11.7 101690 79
2005-05-13 12:42 51°13.949 2°49.409 11.7 131 11.7 101690 79
2005-05-13 12:43 51°13.937 2°49.322 10.6 119 11.7 101700 78
2005-05-13 12:44 51°13.926 2°49.222 11.6 123 11.7 101690 79
2005-05-13 12:45 51°13.921 2°49.136 10.3 111 11.7 101690 79
2005-05-13 12:46 51°13.913 2°49.07 12.2 114 11.6 101690 79
2005-05-13 12:47 51°13.901 2°49.012 12.5 105 11.6 101680 79
2005-05-13 12:48 51°13.888 2°48.959 12 94 11.6 101680 79
2005-05-13 12:49 51°13.907 2°48.905 11.1 34 11.6 101670 79
2005-05-13 12:50 51°13.922 2°48.912 13.5 351 11.6 101680 79
2005-05-13 12:51 51°13.915 2°48.923 12.1 352 11.7 101650 78
2005-05-13 12:52 51°13.902 2°48.917 12.4 9 11.7 101680 79
2005-05-13 12:53 51°13.893 2°48.902 14.1 31 11.7 101690 78
2005-05-13 12:54 51°13.887 2°48.867 12.9 70 11.7 101670 77
2005-05-13 12:55 51°13.882 2°48.816 13.2 89 11.6 101670 77
2005-05-13 12:56 51°13.875 2°48.761 12.2 103 11.6 101680 79
2005-05-13 12:57 51°13.902 2°48.691 12.8 55 11.6 101680 78
2005-05-13 12:58 51°13.947 2°48.688 14.4 22 11.7 101670 79
2005-05-13 12:59 51°13.995 2°48.745 13.5 1 11.6 101680 78
2005-05-13 13:00 51°14.013 2°48.829 14.4 345 11.7 101670 79
2005-05-13 13:01 51°14.025 2°48.92 14.1 346 11.7 101680 78
2005-05-13 13:02 51°14.043 2°49.004 13.8 342 11.8 101690 78
2005-05-13 13:03 51°14.047 2°49.103 13.3 340 11.8 101670 78
2005-05-13 13:04 51°14.058 2°49.183 12.5 346 11.8 101670 78
2005-05-13 13:05 51°14.063 2°49.249 13.5 348 11.8 101670 79
2005-05-13 13:06 51°14.064 2°49.308 12.6 348 11.8 101670 78
2005-05-13 13:07 51°14.063 2°49.376 15.5 340 11.8 101670 78
2005-05-13 13:08 51°14.063 2°49.455 13.3 352 11.8 101670 77
2005-05-13 13:09 51°14.073 2°49.528 15.2 353 11.8 101690 77
2005-05-13 13:10 51°14.089 2°49.595 13.1 354 11.8 101670 77
2005-05-13 13:11 51°14.099 2°49.668 14 351 11.8 101660 78
2005-05-13 13:12 51°14.101 2°49.749 15.5 340 11.8 101670 78
2005-05-13 13:13 51°14.106 2°49.827 13.3 353 11.8 101660 78
2005-05-13 13:14 51°14.122 2°49.902 12.4 354 11.8 101670 78
2005-05-13 13:15 51°14.137 2°49.969 11.6 346 11.8 101680 78
2005-05-13 13:16 51°14.136 2°50.049 13.5 332 11.8 101670 79
2005-05-13 13:17 51°14.117 2°50.138 13.3 315 11.8 101650 78
2005-05-13 13:18 51°14.093 2°50.193 12.5 306 11.8 101650 78
2005-05-13 13:19 51°14.07 2°50.216 14 310 11.8 101650 78
2005-05-13 13:20 51°14.05 2°50.232 12.4 322 11.8 101650 78
2005-05-13 13:21 51°14.05 2°50.279 13.8 350 11.8 101650 78
2005-05-13 13:22 51°14.099 2°50.447 16.7 351 11.9 101650 78
2005-05-13 13:23 51°14.171 2°50.693 18.6 350 11.9 101650 78
2005-05-13 13:24 51°14.245 2°50.949 17.9 352 11.9 101650 77
2005-05-13 13:25 51°14.318 2°51.225 17.5 351 11.9 101640 77
2005-05-13 13:26 51°14.397 2°51.521 16.9 354 11.9 101650 78
2005-05-13 13:27 51°14.472 2°51.813 19 348 11.9 101650 78
2005-05-13 13:28 51°14.537 2°52.113 17.5 345 11.9 101650 78
2005-05-13 13:29 51°14.579 2°52.426 17.8 340 12 101620 78
2005-05-13 13:30 51°14.598 2°52.754 17.1 337 11.9 101640 77
2005-05-13 13:31 51°14.581 2°53.086 17.1 332 12 101630 78
2005-05-13 13:32 51°14.532 2°53.41 15.9 329 12 101630 78
2005-05-13 13:33 51°14.485 2°53.733 19.1 326 12 101620 78
2005-05-13 13:34 51°14.454 2°54.063 16.6 324 12 101630 78
2005-05-13 13:35 51°14.427 2°54.398 18.7 326 12 101620 79
2005-05-13 13:36 51°14.407 2°54.737 18 334 12 101610 79
2005-05-13 13:37 51°14.349 2°55.06 14.8 230 12 101610 79
2005-05-13 13:38 51°14.224 2°55.304 11.8 321 12 101650 79
2005-05-13 13:39 51°14.087 2°55.444 6.1 323 12 101680 80
2005-05-13 13:40 51°13.962 2°55.536 5.7 290 12.1 101680 80
2005-05-13 13:41 51°13.855 2°55.609 7.4 267 12.2 101670 80
2005-05-13 13:42 51°13.776 2°55.688 4.9 307 12.3 101670 79
2005-05-13 13:43 51°13.714 2°55.793 4 297 12.3 101680 79
2005-05-13 13:44 51°13.653 2°55.917 5 229 12.5 101660 78
2005-05-13 13:45 51°13.617 2°56.025 3.8 312 12.6 101670 77
2005-05-13 13:46 51°13.598 2°56.087 2.8 262 12.7 101660 76
2005-05-13 13:47 51°13.593 2°56.1 2.9 296 12.9 101670 75
2005-05-13 13:48 51°13.594 2°56.105 2.5 281 13 101660 74
2005-05-13 13:49 51°13.595 2°56.102 4.2 285 13.1 101670 73